This demonstration page uses our WeatherBlox Daily Observations layout. Learn more.

Left ArrowRight Arrow

Hourly Observations for December 5, 2017

Temp ( °F °C ) Dew Point ( °F °C ) Humidity (%) Winds ( mph kmh ) Pressure ( in mb ) Visibility ( mi km ) Precip ( " mm )
12:15 am 00:15 Clear 43 6 43 6 100 100 S 5 7 30.30 1026 7 11 N/A
12:35 am 00:35 Clear 43 6 43 6 100 100 SSW 3 6 30.33 1027 7 11 N/A
12:55 am 00:55 Clear 43 6 43 6 100 100 SSW 3 6 30.30 1026 7 11 N/A
1:15 am 01:15 Clear 43 6 43 6 100 100 SSW 3 6 30.30 1026 7 11 N/A
1:35 am 01:35 Clear 43 6 43 6 100 100 S 5 7 30.30 1026 7 11 N/A
1:55 am 01:55 Clear 43 6 43 6 100 100 S 6 9 30.30 1026 7 11 N/A
2:15 am 02:15 Clear 43 6 43 6 100 100 N N/A 30.30 1026 7 11 N/A
2:35 am 02:35 Clear 45 7 45 7 100 100 S 10 17 30.27 1025 7 11 N/A
2:55 am 02:55 Clear 45 7 45 7 100 100 S 7 11 30.27 1025 7 11 N/A
3:15 am 03:15 Partly Cloudy with Mist and Fog 43 6 43 6 100 100 SSW 3 6 30.27 1025 5 8 N/A
3:35 am 03:35 Clear with Mist and Fog 43 6 43 6 100 100 S 7 11 30.27 1025 5 8 N/A
3:55 am 03:55 Clear with Mist and Fog 43 6 43 6 100 100 S 6 9 30.27 1025 5 8 N/A
4:15 am 04:15 Clear with Mist and Fog 43 6 43 6 100 100 SSW 5 7 30.27 1025 4 6 N/A
4:35 am 04:35 Clear with Mist and Fog 43 6 43 6 100 100 S 6 9 30.24 1024 4 6 N/A
4:55 am 04:55 Clear with Mist and Fog 41 5 41 5 100 100 SSW 6 9 30.24 1024 3 5 N/A
5:15 am 05:15 Mostly Cloudy with Mist and Fog 43 6 43 6 100 100 S 5 7 30.24 1024 3 5 N/A
5:35 am 05:35 Cloudy with Mist and Fog 43 6 43 6 100 100 S 5 7 30.24 1024 3 5 N/A
5:55 am 05:55 Cloudy with Mist and Fog 43 6 43 6 100 100 S 7 11 30.24 1024 4 6 N/A
6:15 am 06:15 Mostly Cloudy with Mist and Fog 43 6 43 6 100 100 S 12 19 30.21 1023 5 8 N/A
6:35 am 06:35 Partly Cloudy 43 6 43 6 100 100 S 10 17 30.21 1023 7 11 N/A
6:55 am 06:55 Clear 45 7 45 7 100 100 S 12 19 30.21 1023 10 16 N/A
7:15 am 07:15 Sunny 45 7 43 6 93 93 S 12 19 30.21 1023 10 16 N/A
7:35 am 07:35 Sunny 45 7 45 7 100 100 S 10 17 30.18 1022 7 11 N/A
7:55 am 07:55 Sunny with Mist and Fog 45 7 45 7 100 100 S 10 17 30.18 1022 5 8 N/A
8:15 am 08:15 Sunny with Mist and Fog 45 7 45 7 100 100 S 9 15 30.18 1022 5 8 N/A
8:35 am 08:35 Sunny 45 7 45 7 100 100 S 10 17 30.18 1022 7 11 N/A
8:55 am 08:55 Sunny 45 7 45 7 100 100 SSW 8 13 30.18 1022 7 11 N/A
9:15 am 09:15 Sunny 46 8 45 7 93 93 S 10 17 30.18 1022 10 16 N/A
9:35 am 09:35 Sunny 46 8 45 7 93 93 S 10 17 30.18 1022 10 16 N/A
9:55 am 09:55 Sunny 46 8 45 7 93 93 S 9 15 30.15 1021 10 16 N/A
10:15 am 10:15 Sunny 50 10 46 8 88 88 S 10 17 30.15 1021 10 16 N/A
10:35 am 10:35 Sunny 50 10 45 7 82 82 S 9 15 30.15 1021 10 16 N/A
10:55 am 10:55 Partly Cloudy 52 11 46 8 82 82 SSW 8 13 30.12 1020 10 16 N/A
11:15 am 11:15 Sunny 54 12 46 8 77 77 SSW 7 11 30.09 1019 10 16 N/A
11:35 am 11:35 Partly Cloudy 54 12 46 8 77 77 SSW 9 15 30.09 1019 10 16 N/A
11:55 am 11:55 Partly Cloudy 55 13 46 8 72 72 S 9 15 30.06 1018 10 16 N/A
12:15 pm 12:15 Sunny 55 13 48 9 77 77 SSW 10 17 30.03 1017 10 16 N/A
12:35 pm 12:35 Sunny 57 14 50 10 77 77 S 8 13 30.03 1017 10 16 N/A
12:55 pm 12:55 Partly Cloudy 59 15 50 10 72 72 SSW 5 7 30.03 1017 10 16 N/A
1:15 pm 13:15 Mostly Cloudy 59 15 50 10 72 72 SW 9 15 30.03 1017 10 16 N/A
1:35 pm 13:35 Mostly Cloudy 61 16 50 10 68 68 SW 9 15 30.03 1017 10 16 N/A
1:55 pm 13:55 Cloudy with Light Rain 59 15 52 11 77 77 SW 5 7 30.00 1016 10 16 N/A
2:15 pm 14:15 Cloudy 59 15 54 12 82 82 SW 5 7 30.00 1016 10 16 N/A
2:35 pm 14:35 Cloudy 57 14 54 12 88 88 SSW 6 9 30.00 1016 10 16 N/A
2:55 pm 14:55 Cloudy 55 13 54 12 94 94 N N/A 30.00 1016 10 16 N/A
3:15 pm 15:15 Cloudy 55 13 54 12 94 94 S 5 7 30.00 1016 10 16 N/A
3:35 pm 15:35 Cloudy 55 13 54 12 94 94 NW 3 6 30.00 1016 10 16 N/A
3:55 pm 15:55 Cloudy with Light Rain 54 12 54 12 100 100 N N/A 30.00 1016 7 11 N/A
4:15 pm 16:15 Cloudy 54 12 54 12 100 100 N N/A 29.97 1015 10 16 0.01 0.25
4:35 pm 16:35 Cloudy 54 12 54 12 100 100 N N/A 29.97 1015 10 16 0.01 0.25
4:55 pm 16:55 Cloudy 54 12 54 12 100 100 N N/A 29.97 1015 10 16 0.01 0.25
5:15 pm 17:15 Cloudy 54 12 54 12 100 100 N N/A 29.97 1015 10 16 N/A
5:35 pm 17:35 Cloudy with Light Rain 52 11 52 11 100 100 N N/A 29.97 1015 7 11 N/A
5:55 pm 17:55 Cloudy with Rain 52 11 52 11 100 100 NW 5 7 29.97 1015 5 8 N/A
6:15 pm 18:15 Cloudy with Light Rain 52 11 52 11 100 100 N N/A 30.00 1016 5 8 0.01 0.25
6:35 pm 18:35 Cloudy with Rain 52 11 52 11 100 100 N N/A 29.97 1015 5 8 0.03 0.76
6:55 pm 18:55 Cloudy with Rain 52 11 52 11 100 100 SSE 8 13 29.94 1014 7 11 0.05 1.27
7:15 pm 19:15 Cloudy with Light Rain 54 12 54 12 100 100 S 9 15 29.94 1014 7 11 0.02 0.51
7:35 pm 19:35 Cloudy with Light Rain 54 12 54 12 100 100 S 8 13 29.94 1014 7 11 0.04 1.02
8:00 pm 20:00 Cloudy with Drizzle 54 12 54 12 100 100 SSW 12 19 29.94 1014 10 16 N/A
8:15 pm 20:15 Cloudy with Light Rain 54 12 54 12 100 100 S 10 17 29.91 1013 10 16 N/A
8:35 pm 20:35 Cloudy 54 12 54 12 100 100 WSW 6 9 29.94 1014 10 16 0.01 0.25
8:55 pm 20:55 Cloudy 54 12 54 12 100 100 SSW 7 11 29.91 1013 10 16 0.01 0.25
9:15 pm 21:15 Cloudy 54 12 54 12 100 100 N N/A 29.91 1013 7 11 N/A
9:35 pm 21:35 Cloudy 54 12 54 12 100 100 N N/A 29.91 1013 7 11 N/A
9:55 pm 21:55 Partly Cloudy 52 11 52 11 100 100 S 3 6 29.91 1013 7 11 N/A
10:10 pm 22:10 Clear with Mist and Fog 52 11 52 11 100 100 SSW 3 6 29.91 1013 5 8 N/A
10:35 pm 22:35 Partly Cloudy 52 11 52 11 100 100 SSW 6 9 29.88 1012 10 16 N/A
10:55 pm 22:55 Mostly Cloudy 52 11 52 11 100 100 SW 5 7 29.88 1012 10 16 N/A
11:15 pm 23:15 Mostly Cloudy 52 11 52 11 100 100 SW 6 9 29.88 1012 10 16 N/A
11:35 pm 23:35 Mostly Cloudy 52 11 52 11 100 100 SW 6 9 29.88 1012 10 16 N/A
11:55 pm 23:55 Partly Cloudy 52 11 52 11 100 100 WSW 6 9 29.88 1012 10 16 N/A

Powered by AerisWeather